BEIDOU-3 M1 (C19)

Last updated on Thu Nov 21 2024 00:03:16 GMT+0000 (Coordinated Universal Time)

1 43001U 17069A 24324.59180392 -.00000022 00000+0 00000+0 0 9996 2 43001 56.1929 82.0912 0007972 299.0650 60.8340 1.86231181 47902
UTC large
Height (km)
Speed (km/s)
/
Latitude / Longitude
Inclination (degrees)
Orbital Period (minutes)
Azimuth
Elevation
Range (km)
Doppler Factor

Next 0 passes for location: London (51.5072 / 0.1276)

Sorry there are no passes over London.